Weather History for Pensacola NAS, FL

Change the Weather History Date:

Saturday, March 9, 2013

  Actual Average Record
Temperature  
Mean Temperature 55 °F -  
Max Temperature 66 °F 66 °F 75 °F (2002)
Min Temperature 44 °F 48 °F 36 °F (2008)
Degree Days  
Heating Degree Days 10    
Growing Degree Days 5 (Base 50)    
Moisture  
Dew Point 51 °F    
Average Humidity 82    
Maximum Humidity 100    
Minimum Humidity 61    
Precipitation  
Precipitation 0.00 in - - ()
Sea Level Pressure  
Sea Level Pressure 30.17 in    
Wind  
Wind Speed 7 mph (ESE)    
Max Wind Speed 17 mph    
Max Gust Speed 23 mph    
Visibility 8 miles    
Events Rain    
Averages and records for this station are not official NWS values.
T = Trace of Precipitation, MM = Missing Value Source: NWS Daily Summary

Daily Weather History Graph

Daily Weather History Graph

Search for Another Location

Airport:

Trip Planner

Search our weather history database for the weather conditions in past years. The results will help you decide how hot, cold, wet, or windy it might be!

Date:

Astronomy

Mar. 09, 2013 Rise Set
Actual Time 6:06 AM CST 5:53 PM CST
Civil Twilight 5:42 AM CST 6:17 PM CST
Nautical Twilight 5:14 AM CST 6:45 PM CST
Astronomical Twilight 4:46 AM CST 7:13 PM CST
Moon 4:22 AM CST (3/9) 4:00 PM CST (3/9)
Length of Visible Light 12h 35m
Length of Day
11h 47m
Waning Crescent, 5% of the Moon is Illuminated
Mar 9
Waning Crescent
Mar 11
New
Mar 19
First Quarter
Mar 27
Full
Apr 2
Last Quarter

Hourly Weather History & Observations

Time (CST) Temp. Windchill Dew Point Humidity Pressure Visibility Wind Dir Wind Speed Gust Speed Precip Events Conditions
12:56 AM 46.0 °F 44.8 °F 44.1 °F 93% 30.21 in 8.0 mi WNW 3.5 mph - N/A   Clear
1:56 AM 46.9 °F - 46.0 °F 97% 30.19 in 8.0 mi Calm Calm - N/A   Clear
2:56 AM 45.0 °F - 44.1 °F 97% 30.18 in 5.0 mi Calm Calm - 0.00 in Rain Light Rain
3:56 AM 45.0 °F - 44.1 °F 97% 30.17 in 5.0 mi Calm Calm - 0.00 in   Clear
4:43 AM 44.6 °F - 44.6 °F 100% 30.15 in 1.8 mi Calm Calm - 0.00 in   Clear
4:56 AM 46.0 °F - 44.1 °F 93% 30.16 in 3.0 mi Calm Calm - 0.00 in   Clear
5:56 AM 48.9 °F - 46.9 °F 93% 30.17 in 7.0 mi ENE 3.5 mph - 0.00 in Rain Light Rain
6:56 AM 50.0 °F - 48.0 °F 93% 30.18 in 6.0 mi East 4.6 mph - 0.00 in   Clear
7:56 AM 55.0 °F - 51.1 °F 86% 30.21 in 8.0 mi ENE 5.8 mph - N/A   Clear
8:56 AM 61.0 °F - 53.1 °F 75% 30.22 in 10.0 mi East 6.9 mph - N/A   Mostly Cloudy
9:56 AM 64.9 °F - 51.1 °F 61% 30.22 in 10.0 mi ESE 12.7 mph - N/A   Mostly Cloudy
10:56 AM 64.9 °F - 52.0 °F 63% 30.22 in 10.0 mi East 13.8 mph - N/A   Mostly Cloudy
11:56 AM 64.9 °F - 55.9 °F 73% 30.21 in 10.0 mi ESE 17.3 mph 23.0 mph N/A   Overcast
12:56 PM 64.9 °F - 55.9 °F 73% 30.19 in 10.0 mi ESE 16.1 mph - N/A   Overcast
1:56 PM 66.0 °F - 55.9 °F 70% 30.19 in 10.0 mi ESE 15.0 mph - N/A   Overcast
2:56 PM 64.0 °F - 55.0 °F 73% 30.18 in 10.0 mi ESE 13.8 mph - N/A   Overcast
3:56 PM 64.0 °F - 54.0 °F 70% 30.17 in 10.0 mi ESE 12.7 mph - N/A   Overcast
4:56 PM 62.1 °F - 53.1 °F 72% 30.17 in 10.0 mi ESE 12.7 mph - N/A   Overcast
5:30 PM 60.8 °F - 53.6 °F 77% 30.16 in 10.0 mi ESE 12.7 mph - N/A   Overcast
5:56 PM 61.0 °F - 53.1 °F 75% 30.16 in 10.0 mi ESE 12.7 mph - N/A   Clear
6:56 PM 61.0 °F - 55.0 °F 81% 30.14 in 10.0 mi ESE 15.0 mph - N/A   Clear
7:56 PM 60.1 °F - 55.0 °F 83% 30.14 in 10.0 mi SE 11.5 mph - N/A   Clear
8:56 PM 60.1 °F - 55.0 °F 83% 30.12 in 10.0 mi ESE 15.0 mph - N/A   Clear
9:56 PM 60.1 °F - 54.0 °F 80% 30.12 in 10.0 mi SE 11.5 mph - N/A   Clear
10:56 PM 59.0 °F - 54.0 °F 83% 30.09 in 10.0 mi SE 12.7 mph - N/A   Clear
11:56 PM 61.0 °F - 55.0 °F 81% 30.09 in 10.0 mi SE 10.4 mph - N/A   Clear